period_start,C,m1,H,J0,J1,J2,J3,J4,J5,JA,JB,JC,JD,JJ,JK,JN,#
2015-04-07 00:04:10,0.20,2.07,0.00,23.39,27.04,29.77,4.83,27.67,1026.38,2032.99,2606.54,2782.36,2980.17,350.26,350.85,14.01,0000 0000 0000 0000 000000
2015-04-07 00:09:11,0.24,2.08,0.00,23.49,27.05,29.82,4.78,27.44,1026.38,2032.99,2604.38,2780.74,2978.47,349.59,350.03,14.04,0000 0000 0000 0000 000000
2015-04-07 00:14:13,0.19,2.08,0.00,23.54,27.05,29.90,4.86,27.43,1026.38,2032.99,2602.36,2779.28,2976.87,350.07,350.37,14.07,0000 0000 0000 0000 000000
2015-04-07 00:19:14,0.12,2.09,0.00,23.93,27.06,29.97,4.81,27.40,1026.38,2032.98,2601.04,2778.19,2975.86,350.19,350.13,14.10,0000 0000 0000 0000 000000
2015-04-07 00:24:15,0.09,2.09,0.00,24.06,27.08,30.05,4.83,27.36,1026.38,2032.97,2600.13,2777.61,2975.00,349.87,349.68,14.13,0000 0000 0000 0000 000000
2015-04-07 00:29:17,0.10,2.09,0.00,23.41,27.10,30.16,4.77,27.38,1026.38,2032.89,2598.96,2776.78,2974.10,349.34,349.88,14.16,0000 0000 0000 0000 000000
2015-04-07 00:34:18,0.10,2.10,0.00,23.10,27.10,29.89,4.82,27.41,1026.39,2032.85,2597.68,2776.03,2973.15,349.28,350.00,14.19,0000 0000 0000 0000 000000
2015-04-07 00:39:19,0.10,2.10,0.00,23.55,27.10,29.54,4.75,27.16,1026.38,2032.90,2596.87,2775.48,2972.67,350.02,350.48,14.21,0000 0000 0000 0000 000000
2015-04-07 00:44:20,0.20,2.11,0.00,23.53,27.09,29.49,4.82,27.65,1026.38,2032.96,2595.22,2774.30,2971.38,350.07,350.31,14.24,0000 0000 0000 0000 000000
2015-04-07 00:49:21,0.25,2.11,0.00,23.35,27.07,29.61,4.75,27.67,1026.38,2032.97,2592.79,2772.52,2969.44,350.20,350.82,14.27,0000 0000 0000 0000 000000
2015-04-07 00:54:23,0.29,2.12,0.00,23.40,27.06,29.68,4.82,27.60,1026.38,2032.98,2590.06,2770.59,2967.32,349.93,350.35,14.30,0000 0000 0000 0000 000000
2015-04-07 00:59:24,0.16,2.13,0.00,23.53,27.05,29.79,4.82,27.48,1026.38,2032.98,2588.09,2769.13,2965.84,349.87,350.12,14.33,0000 0000 0000 0000 000000
2015-04-07 01:04:25,0.21,2.13,0.00,23.54,27.05,29.79,4.77,27.52,1026.38,2032.98,2586.28,2767.79,2964.45,350.26,350.69,14.36,0000 0000 0000 0000 000000
2015-04-07 01:09:26,0.25,2.14,0.00,23.61,27.05,29.83,4.82,27.68,1026.38,2032.97,2583.98,2766.06,2962.49,349.84,350.15,14.39,0000 0000 0000 0000 000000
2015-04-07 01:14:27,0.27,2.15,0.00,23.95,27.06,29.89,4.83,27.52,1026.38,2032.95,2581.46,2764.22,2960.52,350.54,350.40,14.42,0000 0000 0000 0000 000000
2015-04-07 01:19:29,0.24,2.16,0.00,24.18,27.07,29.97,4.77,27.63,1026.38,2032.92,2579.00,2762.43,2958.59,349.97,349.79,14.45,0000 0000 0000 0000 000000
2015-04-07 01:24:30,0.11,2.16,0.00,23.56,27.10,30.12,4.82,27.52,1026.38,2032.78,2577.50,2761.27,2957.43,349.80,350.17,14.48,0000 0000 0000 0000 000000
2015-04-07 01:29:31,0.21,2.17,0.00,23.18,27.10,30.00,4.83,27.52,1026.40,2032.81,2575.59,2760.03,2956.08,349.98,350.73,14.51,0000 0000 0000 0000 000000
2015-04-07 01:34:32,0.24,2.17,0.00,23.44,27.10,29.70,4.82,27.56,1026.39,2032.72,2573.16,2758.28,2954.23,350.32,350.60,14.54,0000 0000 0000 0000 000000
2015-04-07 01:39:34,0.23,2.18,0.00,23.47,27.09,29.65,4.78,27.65,1026.39,2032.93,2571.16,2756.86,2952.67,349.92,350.35,14.57,0000 0000 0000 0000 000000
2015-04-07 01:44:35,0.21,2.18,0.00,23.32,27.07,29.67,4.87,27.98,1026.39,2032.96,2569.28,2755.55,2951.24,350.82,351.29,14.60,0000 0000 0000 0000 000000
2015-04-07 01:49:37,0.19,2.19,0.00,23.37,27.06,29.72,4.81,27.52,1026.40,2032.95,2567.32,2754.05,2949.76,350.03,350.62,14.63,0000 0000 0000 0000 000000
2015-04-07 01:54:38,0.29,2.20,0.00,23.51,27.05,29.79,4.76,27.57,1026.42,2032.97,2564.71,2752.30,2947.74,349.51,350.06,14.65,0000 0000 0000 0000 000000
2015-04-07 01:59:39,0.28,2.21,0.00,23.55,27.05,29.81,4.83,27.58,1026.40,2032.95,2562.04,2750.42,2945.68,350.30,350.67,14.68,0000 0000 0000 0000 000000
2015-04-07 02:04:41,0.33,2.22,0.00,23.68,27.06,29.82,4.82,27.66,1026.43,2032.94,2559.10,2748.21,2943.36,349.65,349.89,14.71,0000 0000 0000 0000 000000
2015-04-07 02:09:42,0.28,2.22,0.00,24.05,27.07,29.88,4.80,27.48,1026.67,2032.91,2556.44,2746.21,2941.24,350.15,350.04,14.74,0000 0000 0000 0000 000000
2015-04-07 02:14:43,0.23,2.23,0.00,24.25,27.09,29.96,4.82,27.61,1026.78,2032.90,2554.01,2744.39,2939.24,349.89,349.65,14.77,0000 0000 0000 0000 000000
2015-04-07 02:19:44,0.24,2.24,0.00,23.66,27.11,30.15,4.78,27.51,1026.80,2032.74,2551.68,2742.65,2937.45,349.50,349.90,14.80,0000 0000 0000 0000 000000
2015-04-07 02:24:46,0.15,2.24,0.00,23.31,27.12,30.10,4.82,27.60,1026.76,2032.25,2549.26,2740.96,2935.70,349.77,350.56,14.83,0000 0000 0000 0000 000000
2015-04-07 02:29:47,0.25,2.25,0.00,23.49,27.12,29.82,4.80,27.68,1026.76,2032.30,2547.02,2739.40,2933.92,350.02,350.75,14.86,0000 0000 0000 0000 000000
2015-04-07 02:34:49,0.26,2.26,0.00,23.53,27.10,29.67,4.83,27.63,1026.65,2032.43,2544.91,2737.75,2932.36,350.21,350.71,14.89,0000 0000 0000 0000 000000
2015-04-07 02:39:50,0.27,2.27,0.00,23.31,27.10,29.70,4.85,27.67,1026.63,2032.76,2542.92,2736.39,2930.78,349.94,350.77,14.92,0000 0000 0000 0000 000000
2015-04-07 02:44:51,0.22,2.27,0.00,23.40,27.09,29.72,4.87,27.63,1026.57,2032.72,2540.50,2734.71,2929.01,349.82,350.44,14.95,0000 0000 0000 0000 000000
2015-04-07 02:49:53,0.22,2.28,0.00,23.51,27.07,29.82,4.84,27.63,1026.66,2032.78,2538.62,2733.43,2927.66,350.28,350.84,14.98,0000 0000 0000 0000 000000
2015-04-07 02:54:54,0.21,2.29,0.00,23.66,27.07,29.81,4.77,27.73,1026.78,2032.70,2536.44,2731.67,2925.79,350.03,350.45,15.01,0000 0000 0000 0000 000000
2015-04-07 02:59:55,0.18,2.29,0.00,23.82,27.09,29.86,4.80,27.43,1026.86,2032.54,2534.61,2730.39,2924.39,350.10,350.44,15.04,0000 0000 0000 0000 000000
2015-04-07 03:04:57,0.19,2.30,0.00,24.39,27.10,29.89,4.84,27.52,1026.87,2032.34,2532.55,2728.76,2922.65,350.28,349.91,15.06,0000 0000 0000 0000 000000
2015-04-07 03:09:58,0.12,2.30,0.00,24.13,27.12,30.04,4.81,27.60,1026.87,2032.26,2531.15,2727.75,2921.58,349.93,349.80,15.09,0000 0000 0000 0000 000000
2015-04-07 03:15:00,0.09,2.30,0.00,23.53,27.14,30.19,4.89,27.43,1026.87,2032.19,2529.87,2727.00,2920.71,350.37,351.33,15.12,0000 0000 0000 0000 000000
2015-04-07 03:20:01,0.12,2.31,0.00,23.37,27.15,30.04,4.84,27.35,1026.87,2032.21,2528.73,2726.20,2919.95,349.75,350.50,15.15,0000 0000 0000 0000 000000
2015-04-07 03:25:02,0.16,2.31,0.00,23.68,27.13,29.81,4.79,27.47,1026.87,2032.32,2527.60,2725.44,2919.07,349.96,350.35,15.18,0000 0000 0000 0000 000000
2015-04-07 03:30:03,0.15,2.32,0.00,23.46,27.12,29.81,4.79,27.55,1026.87,2032.39,2526.18,2724.59,2918.11,350.04,350.70,15.21,0000 0000 0000 0000 000000
2015-04-07 03:35:04,0.10,2.32,0.00,23.41,27.12,29.74,4.88,27.63,1026.87,2032.51,2525.08,2723.98,2917.23,349.93,350.63,15.24,0000 0000 0000 0000 000000
2015-04-07 03:40:05,0.15,2.32,0.00,23.46,27.10,29.80,4.76,27.62,1026.87,2032.75,2524.30,2723.29,2916.97,349.56,350.20,15.27,0000 0000 0000 0000 000000
2015-04-07 03:45:07,0.01,2.33,0.00,23.71,27.10,29.85,4.84,27.77,1026.87,2032.67,2523.53,2722.90,2916.16,350.67,351.17,15.30,0000 0000 0000 0000 000000
2015-04-07 03:50:08,0.12,2.33,0.00,24.10,27.11,29.88,4.77,27.73,1026.87,2032.64,2522.87,2722.13,2915.64,349.28,349.17,15.33,0000 0000 0000 0000 000000
2015-04-07 03:55:10,0.06,2.33,0.00,24.42,27.12,29.96,4.72,27.44,1026.87,2032.48,2521.94,2721.62,2914.88,349.26,348.96,15.36,0000 0000 0000 0000 000000
2015-04-07 04:00:11,0.04,2.33,0.00,23.79,27.14,30.08,4.78,27.51,1026.87,2032.26,2521.04,2721.01,2914.08,349.33,349.50,15.39,0000 0000 0000 0000 000000
2015-04-07 04:05:12,0.13,2.34,0.00,23.41,27.15,30.08,4.80,27.46,1026.88,2032.28,2520.17,2720.39,2913.50,350.09,350.80,15.42,0000 0000 0000 0000 000000
2015-04-07 04:10:13,0.06,2.34,0.00,23.60,27.14,29.82,4.77,27.51,1026.87,2032.38,2519.43,2720.00,2913.00,349.56,349.93,15.45,0000 0000 0000 0000 000000
2015-04-07 04:15:15,0.09,2.34,0.00,23.67,27.12,29.71,4.76,27.49,1026.87,2032.48,2518.85,2719.56,2912.55,349.41,350.02,15.47,0000 0000 0000 0000 000000
2015-04-07 04:20:16,0.08,2.34,0.00,23.46,27.12,29.70,4.84,27.63,1026.87,2032.65,2518.05,2719.01,2912.00,350.49,351.08,15.50,0000 0000 0000 0000 000000
2015-04-07 04:25:18,0.14,2.35,0.00,23.46,27.10,29.77,4.83,27.71,1026.87,2032.76,2517.26,2718.54,2911.53,349.91,350.51,15.53,0000 0000 0000 0000 000000
2015-04-07 04:30:19,0.00,2.35,0.00,23.75,27.10,29.83,4.84,27.63,1026.87,2032.57,2516.63,2718.01,2910.96,350.04,350.21,15.56,0000 0000 0000 0000 000000
2015-04-07 04:35:20,0.10,2.35,0.00,23.86,27.10,29.84,4.76,27.37,1026.88,2032.63,2516.01,2717.60,2910.27,349.95,350.05,15.59,0000 0000 0000 0000 000000
2015-04-07 04:40:21,0.01,2.35,0.00,24.42,27.12,29.88,4.74,27.40,1026.88,2032.42,2515.21,2717.01,2909.86,350.33,349.85,15.62,0000 0000 0000 0000 000000
2015-04-07 04:45:23,0.08,2.35,0.00,24.12,27.12,30.01,4.77,27.57,1026.89,2032.16,2514.36,2716.32,2909.05,350.22,350.09,15.65,0000 0000 0000 0000 000000
2015-04-07 04:50:24,0.04,2.35,0.00,23.57,27.14,30.15,4.89,27.46,1026.89,2032.08,2513.65,2716.00,2908.48,350.28,350.62,15.68,0000 0000 0000 0000 000000
2015-04-07 04:55:26,0.09,2.36,0.00,23.45,27.15,29.98,4.88,27.27,1026.89,2032.17,2513.01,2715.54,2908.01,350.57,351.28,15.71,0000 0000 0000 0000 000000
2015-04-07 05:00:27,0.05,2.36,0.00,23.78,27.13,29.76,4.76,27.44,1026.89,2032.23,2512.37,2715.02,2907.80,349.64,349.92,15.74,0000 0000 0000 0000 000000
2015-04-07 05:05:28,0.11,2.36,0.00,23.60,27.12,29.72,4.81,27.33,1026.89,2032.61,2511.99,2714.94,2907.09,350.12,350.52,15.77,0000 0000 0000 0000 000000
2015-04-07 05:10:29,0.13,2.37,0.00,23.53,27.11,29.71,4.80,27.54,1026.90,2032.79,2511.29,2714.24,2906.95,349.88,350.59,15.80,0000 0000 0000 0000 000000
2015-04-07 05:15:31,0.05,2.37,0.00,23.79,27.10,29.82,4.79,27.38,1026.93,2032.87,2510.83,2714.00,2906.23,349.99,350.36,15.83,0000 0000 0000 0000 000000
2015-04-07 05:20:32,0.07,2.37,0.00,23.94,27.10,29.81,4.78,27.30,1026.95,2032.90,2510.07,2713.52,2905.89,350.38,350.55,15.86,0000 0000 0000 0000 000000
2015-04-07 05:25:33,0.01,2.37,0.00,24.37,27.12,29.87,4.77,27.52,1026.93,2032.61,2509.36,2712.99,2905.09,350.35,350.08,15.88,0000 0000 0000 0000 000000
2015-04-07 05:30:34,0.11,2.37,0.00,24.08,27.12,30.01,4.77,27.43,1027.08,2032.51,2508.74,2712.35,2904.62,349.74,349.49,15.91,0000 0000 0000 0000 000000
2015-04-07 05:35:35,-0.03,2.37,0.00,23.55,27.13,30.11,4.80,27.53,1027.24,2032.15,2507.93,2711.97,2904.01,349.96,350.37,15.94,0000 0000 0000 0000 000000
2015-04-07 05:40:37,0.12,2.38,0.00,23.42,27.13,29.96,4.77,27.64,1027.21,2032.18,2507.09,2711.33,2903.41,349.49,350.30,15.97,0000 0000 0000 0000 000000
2015-04-07 05:45:38,0.04,2.38,0.00,23.76,27.12,29.64,4.75,27.51,1027.24,2032.16,2506.39,2710.99,2903.01,349.65,350.16,16.00,0000 0000 0000 0000 000000
2015-04-07 05:50:39,0.10,2.38,0.00,23.60,27.11,29.69,4.84,27.56,1027.25,2032.37,2505.92,2710.66,2902.63,350.52,350.96,16.03,0000 0000 0000 0000 000000
2015-04-07 05:55:41,0.10,2.38,0.00,23.59,27.10,29.76,4.81,27.74,1027.31,2032.48,2505.09,2710.02,2902.01,350.20,350.95,16.06,0000 0000 0000 0000 000000
2015-04-07 06:00:42,0.10,2.38,0.00,23.72,27.10,29.80,4.80,27.64,1027.36,2032.57,2504.43,2709.82,2901.60,349.51,350.07,16.09,0000 0000 0000 0000 000000
2015-04-07 06:05:44,0.06,2.39,0.00,23.89,27.10,29.81,4.81,27.48,1027.36,2032.74,2503.95,2709.11,2901.02,350.57,350.79,16.12,0000 0000 0000 0000 000000
2015-04-07 06:10:45,0.04,2.39,0.00,24.39,27.10,29.87,4.78,27.44,1027.36,2032.54,2503.18,2708.90,2900.51,349.87,349.76,16.15,0000 0000 0000 0000 000000
2015-04-07 06:15:46,0.11,2.39,0.00,24.22,27.12,29.95,4.80,27.38,1027.38,2032.69,2502.81,2708.16,2900.01,349.63,349.56,16.18,0000 0000 0000 0000 000000
2015-04-07 06:20:48,-0.03,2.39,0.00,23.67,27.12,30.10,4.81,27.61,1027.37,2032.38,2502.02,2707.99,2899.54,349.27,349.97,16.21,0000 0000 0000 0000 000000
2015-04-07 06:25:49,0.11,2.39,0.00,23.47,27.12,29.98,4.89,27.66,1027.40,2032.34,2501.18,2707.37,2899.01,349.88,350.42,16.24,0000 0000 0000 0000 000000
2015-04-07 06:30:50,0.05,2.40,0.00,23.77,27.11,29.70,4.76,27.76,1027.40,2032.44,2500.97,2707.01,2898.78,349.82,350.38,16.27,0000 0000 0000 0000 000000
2015-04-07 06:35:52,0.09,2.40,0.00,23.63,27.10,29.75,4.80,27.77,1027.44,2032.73,2500.22,2706.94,2898.08,349.72,350.21,16.29,0000 0000 0000 0000 000000
2015-04-07 06:40:53,0.04,2.40,0.00,23.60,27.10,29.78,4.85,27.67,1027.52,2032.63,2499.80,2706.26,2897.94,349.86,350.56,16.32,0000 0000 0000 0000 000000
2015-04-07 06:45:54,0.05,2.40,0.00,23.69,27.09,29.75,4.81,27.67,1027.70,2032.55,2499.05,2705.99,2897.17,350.22,351.01,16.35,0000 0000 0000 0000 000000
2015-04-07 06:50:55,0.10,2.41,0.00,24.03,27.09,29.80,4.85,27.47,1027.80,2032.71,2498.49,2705.59,2896.98,350.04,350.44,16.38,0000 0000 0000 0000 000000
2015-04-07 06:55:57,0.04,2.41,0.00,24.36,27.10,29.89,4.78,27.32,1027.80,2032.67,2497.99,2705.04,2896.24,349.80,349.64,16.41,0000 0000 0000 0000 000000
2015-04-07 07:00:58,0.02,2.41,0.00,23.85,27.10,30.01,4.75,27.45,1027.80,2032.45,2497.20,2704.74,2895.96,349.67,350.15,16.44,0000 0000 0000 0000 000000
2015-04-07 07:05:59,0.07,2.41,0.00,23.50,27.11,30.08,4.80,27.57,1027.84,2032.37,2496.64,2704.06,2895.32,350.01,351.15,16.47,0000 0000 0000 0000 000000
2015-04-07 07:11:00,0.03,2.41,0.00,23.63,27.10,29.84,4.79,27.40,1027.82,2032.33,2496.01,2703.99,2894.99,350.46,350.96,16.50,0000 0000 0000 0000 000000
2015-04-07 07:16:01,0.13,2.41,0.00,23.78,27.09,29.70,4.85,27.70,1027.84,2032.67,2495.68,2703.64,2894.61,350.21,350.81,16.53,0000 0000 0000 0000 000000
2015-04-07 07:21:03,0.06,2.42,0.00,23.59,27.07,29.69,4.75,27.55,1027.84,2032.78,2495.02,2703.03,2894.02,349.80,350.75,16.56,0000 0000 0000 0000 000000
2015-04-07 07:26:04,0.04,2.42,0.00,23.55,27.07,29.76,4.70,27.54,1027.83,2032.79,2494.66,2702.93,2893.83,349.29,350.28,16.59,0000 0000 0000 0000 000000
2015-04-07 07:31:05,0.09,2.42,0.00,24.05,27.07,29.81,4.82,27.85,1027.83,2032.77,2494.01,2702.21,2893.06,350.08,350.44,16.62,0000 0000 0000 0000 000000
2015-04-07 07:36:07,0.02,2.42,0.00,24.36,27.07,29.85,4.79,27.64,1027.81,2032.77,2493.43,2701.99,2892.94,349.86,349.60,16.65,0000 0000 0000 0000 000000
2015-04-07 07:41:08,0.07,2.42,0.00,23.86,27.07,29.99,4.82,27.59,1027.83,2032.71,2492.90,2701.67,2892.17,349.96,350.52,16.68,0000 0000 0000 0000 000000
2015-04-07 07:46:10,0.04,2.43,0.00,23.52,27.07,30.00,4.80,27.55,1027.85,2032.52,2492.07,2701.03,2891.99,349.28,350.29,16.70,0000 0000 0000 0000 000000
2015-04-07 07:51:11,0.07,2.43,0.00,23.68,27.07,29.78,4.81,27.41,1027.85,2032.77,2491.85,2700.99,2891.57,350.65,351.33,16.73,0000 0000 0000 0000 000000
2015-04-07 07:56:12,0.08,2.43,0.00,23.73,27.06,29.68,4.84,27.45,1027.85,2032.92,2491.11,2700.73,2891.03,350.46,351.10,16.76,0000 0000 0000 0000 000000
2015-04-07 08:01:13,0.05,2.43,0.00,23.58,27.05,29.68,4.81,27.80,1027.85,2032.97,2490.82,2700.07,2890.89,350.30,351.07,16.79,0000 0000 0000 0000 000000
2015-04-07 08:06:14,0.06,2.43,0.00,23.71,27.05,29.73,4.83,27.67,1027.85,2032.98,2490.05,2699.99,2890.12,349.99,350.74,16.82,0000 0000 0000 0000 000000
2015-04-07 08:11:16,0.07,2.44,0.00,24.20,27.05,29.76,4.78,27.52,1027.85,2032.96,2489.65,2699.32,2889.95,350.20,350.29,16.85,0000 0000 0000 0000 000000
2015-04-07 08:16:17,0.04,2.44,0.00,24.55,27.05,29.80,4.73,27.49,1027.86,2032.86,2488.98,2698.99,2889.17,349.11,348.81,16.88,0000 0000 0000 0000 000000
2015-04-07 08:21:18,0.10,2.44,0.00,24.01,27.06,29.93,4.72,27.51,1027.87,2032.89,2488.22,2698.43,2888.98,349.99,350.33,16.91,0000 0000 0000 0000 000000
2015-04-07 08:26:20,0.05,2.44,0.00,23.62,27.07,30.06,4.78,27.37,1027.87,2032.90,2487.81,2698.01,2888.28,349.90,350.61,16.94,0000 0000 0000 0000 000000
2015-04-07 08:31:21,0.04,2.44,0.00,23.73,27.07,29.96,4.81,27.65,1027.87,2032.94,2487.05,2697.97,2888.00,349.71,350.35,16.97,0000 0000 0000 0000 000000
2015-04-07 08:36:23,0.07,2.44,0.00,23.89,27.06,29.81,4.83,27.56,1027.86,2032.94,2486.85,2697.38,2887.76,350.05,350.49,17.00,0000 0000 0000 0000 000000
2015-04-07 08:41:24,0.06,2.45,0.00,23.57,27.05,29.76,4.83,27.68,1027.91,2032.95,2486.07,2697.01,2887.06,349.74,350.71,17.03,0000 0000 0000 0000 000000
2015-04-07 08:46:25,0.05,2.45,0.00,23.63,27.05,29.81,4.75,27.77,1028.03,2032.97,2485.53,2696.80,2886.85,349.72,350.64,17.06,0000 0000 0000 0000 000000
2015-04-07 08:51:26,0.06,2.45,0.00,24.06,27.05,29.81,4.77,27.68,1028.17,2032.92,2484.99,2696.08,2886.09,350.04,350.31,17.09,0000 0000 0000 0000 000000
2015-04-07 08:56:27,0.07,2.45,0.00,24.54,27.07,29.77,4.82,27.64,1028.24,2032.89,2484.25,2695.84,2885.75,350.29,350.12,17.11,0000 0000 0000 0000 000000
2015-04-07 09:01:28,0.06,2.45,0.00,24.08,27.08,29.98,4.70,27.46,1028.31,2032.69,2483.59,2695.08,2885.03,349.51,349.68,17.14,0000 0000 0000 0000 000000
2015-04-07 09:06:30,0.00,2.45,0.00,23.66,27.10,30.12,4.84,27.76,1028.33,2032.44,2482.93,2694.93,2884.51,350.18,351.04,17.17,0000 0000 0000 0000 000000
2015-04-07 09:11:31,0.12,2.46,0.00,23.64,27.09,29.93,4.77,27.57,1028.33,2032.62,2482.20,2694.33,2884.03,349.74,350.62,17.20,0000 0000 0000 0000 000000
2015-04-07 09:16:32,0.05,2.46,0.00,23.82,27.07,29.78,4.79,27.55,1028.33,2032.79,2481.99,2694.01,2883.99,349.41,350.12,17.23,0000 0000 0000 0000 000000
2015-04-07 09:21:33,0.07,2.46,0.00,23.58,27.07,29.75,4.84,27.51,1028.33,2032.85,2481.41,2693.97,2883.37,350.29,351.32,17.26,0000 0000 0000 0000 000000
2015-04-07 09:26:35,0.06,2.46,0.00,23.65,27.07,29.79,4.79,27.67,1028.33,2032.87,2480.98,2693.43,2883.00,349.50,350.61,17.29,0000 0000 0000 0000 000000
2015-04-07 09:31:36,0.04,2.46,0.00,23.86,27.07,29.83,4.82,27.59,1028.33,2032.81,2480.23,2693.00,2882.58,350.19,350.87,17.32,0000 0000 0000 0000 000000
2015-04-07 09:36:37,0.03,2.47,0.00,24.30,27.07,29.85,4.83,27.43,1028.33,2032.65,2479.86,2692.69,2882.01,349.77,350.06,17.35,0000 0000 0000 0000 000000
2015-04-07 09:41:38,0.07,2.47,0.00,24.38,27.09,29.88,4.81,27.51,1028.33,2032.51,2479.07,2692.02,2881.54,349.80,349.80,17.38,0000 0000 0000 0000 000000
2015-04-07 09:46:39,0.01,2.47,0.00,23.83,27.10,30.07,4.79,27.43,1028.33,2032.17,2478.33,2691.80,2881.01,349.69,350.14,17.41,0000 0000 0000 0000 000000
2015-04-07 09:51:40,0.07,2.47,0.00,23.54,27.10,30.06,4.85,27.43,1028.34,2032.29,2477.93,2691.17,2880.75,349.69,350.84,17.44,0000 0000 0000 0000 000000
2015-04-07 09:56:41,0.08,2.47,0.00,23.70,27.10,29.85,4.79,27.55,1028.34,2032.31,2477.11,2691.00,2880.06,350.38,351.26,17.47,0000 0000 0000 0000 000000
2015-04-07 10:01:43,0.11,2.47,0.00,23.77,27.07,29.77,4.69,27.38,1028.35,2032.68,2476.67,2690.71,2879.92,349.11,349.89,17.50,0000 0000 0000 0000 000000
2015-04-07 10:06:44,0.12,2.48,0.00,23.56,27.07,29.73,4.84,27.51,1028.36,2032.83,2475.68,2689.95,2879.08,350.02,350.98,17.52,0000 0000 0000 0000 000000
2015-04-07 10:11:45,0.13,2.48,0.00,23.61,27.07,29.82,4.81,27.64,1028.35,2032.78,2474.27,2689.02,2878.18,349.95,350.90,17.55,0000 0000 0000 0000 000000
2015-04-07 10:16:47,0.16,2.49,0.00,24.26,27.07,29.86,4.78,27.50,1028.37,2032.79,2472.74,2687.92,2877.04,349.53,349.72,17.58,0000 0000 0000 0000 000000
2015-04-07 10:21:48,0.20,2.49,0.00,24.18,27.07,29.91,4.80,27.42,1028.42,2032.62,2470.96,2686.61,2875.59,349.79,349.86,17.61,0000 0000 0000 0000 000000
2015-04-07 10:26:49,0.10,2.50,0.00,23.61,27.07,29.99,4.87,27.55,1028.58,2032.74,2469.82,2685.99,2874.85,350.06,351.23,17.64,0000 0000 0000 0000 000000
2015-04-07 10:31:50,0.11,2.50,0.00,23.42,27.06,29.83,4.85,27.43,1028.78,2032.76,2468.81,2685.18,2874.06,349.78,351.23,17.67,0000 0000 0000 0000 000000
2015-04-07 10:36:52,0.10,2.50,0.00,23.78,27.05,29.62,4.82,27.43,1028.82,2032.94,2467.93,2684.90,2873.54,349.91,350.75,17.70,0000 0000 0000 0000 000000
2015-04-07 10:41:53,0.13,2.51,0.00,23.59,27.03,29.56,4.84,27.51,1028.82,2032.97,2466.84,2684.08,2872.76,349.88,351.21,17.73,0000 0000 0000 0000 000000
2015-04-07 10:46:54,0.11,2.51,0.00,23.38,27.02,29.60,4.89,27.52,1028.82,2032.97,2465.80,2683.34,2872.03,350.63,352.26,17.76,0000 0000 0000 0000 000000
2015-04-07 10:51:55,0.07,2.51,0.00,23.49,27.00,29.72,4.78,27.43,1028.82,2032.96,2464.93,2682.90,2871.31,349.47,350.54,17.79,0000 0000 0000 0000 000000
2015-04-07 10:56:56,0.11,2.52,0.00,23.85,27.00,29.76,4.80,27.48,1028.83,2032.97,2464.02,2682.09,2870.62,350.19,351.12,17.82,0000 0000 0000 0000 000000
2015-04-07 11:01:58,0.12,2.52,0.00,24.43,27.01,29.77,4.83,27.33,1028.84,2032.96,2462.95,2681.43,2869.83,350.36,350.55,17.85,0000 0000 0000 0000 000000
2015-04-07 11:06:59,0.10,2.52,0.00,24.11,27.02,29.85,4.81,27.48,1028.85,2032.91,2461.75,2680.77,2869.04,349.87,350.73,17.88,0000 0000 0000 0000 000000
2015-04-07 11:12:00,0.07,2.53,0.00,23.59,27.03,29.99,4.81,27.47,1028.85,2032.84,2460.83,2680.04,2868.27,350.75,352.00,17.90,0000 0000 0000 0000 000000
2015-04-07 11:17:02,0.06,2.53,0.00,23.43,27.02,29.88,4.81,27.43,1028.87,2032.86,2460.04,2679.96,2867.98,350.35,351.50,17.93,0000 0000 0000 0000 000000
2015-04-07 11:22:03,0.11,2.53,0.00,23.72,27.02,29.69,4.86,27.47,1028.88,2032.94,2459.50,2679.31,2867.41,350.39,351.37,17.96,0000 0000 0000 0000 000000
2015-04-07 11:27:04,0.02,2.53,0.00,23.53,27.01,29.61,4.86,27.52,1028.86,2032.96,2459.01,2679.00,2867.01,350.26,351.61,17.99,0000 0000 0000 0000 000000
2015-04-07 11:32:06,0.06,2.53,0.00,23.44,27.00,29.70,4.85,27.65,1028.85,2032.98,2458.36,2678.90,2866.85,349.91,351.26,18.02,0000 0000 0000 0000 000000
2015-04-07 11:37:07,0.08,2.54,0.00,23.60,27.00,29.77,4.79,27.43,1028.85,2032.97,2457.81,2678.14,2866.10,349.67,350.87,18.05,0000 0000 0000 0000 000000
2015-04-07 11:42:09,0.06,2.54,0.00,23.82,27.00,29.79,4.88,27.39,1028.85,2032.97,2456.94,2677.93,2865.75,350.22,351.12,18.08,0000 0000 0000 0000 000000
2015-04-07 11:47:10,0.11,2.54,0.00,24.44,27.00,29.80,4.86,27.42,1028.89,2032.97,2455.99,2677.09,2864.94,349.89,350.33,18.11,0000 0000 0000 0000 000000
2015-04-07 11:52:11,0.12,2.54,0.00,24.21,27.02,29.88,4.78,27.37,1029.01,2032.94,2454.91,2676.32,2864.07,350.13,350.53,18.14,0000 0000 0000 0000 000000
2015-04-07 11:57:12,0.06,2.55,0.00,23.62,27.03,30.06,4.79,27.45,1029.07,2032.92,2454.00,2675.97,2863.45,349.88,351.33,18.17,0000 0000 0000 0000 000000
2015-04-07 12:02:14,0.10,2.55,0.00,23.42,27.03,29.89,4.77,27.62,1029.11,2032.94,2453.16,2675.23,2863.01,349.56,350.81,18.20,0000 0000 0000 0000 000000
2015-04-07 12:07:15,0.05,2.55,0.00,23.77,27.02,29.66,4.87,27.59,1029.15,2032.94,2452.69,2675.00,2862.47,350.68,351.90,18.23,0000 0000 0000 0000 000000
2015-04-07 12:12:16,0.04,2.55,0.00,23.63,27.02,29.66,4.79,27.55,1029.14,2032.98,2452.03,2674.93,2862.03,349.31,350.53,18.26,0000 0000 0000 0000 000000
2015-04-07 12:17:17,0.09,2.55,0.00,23.56,27.01,29.72,4.84,27.68,1029.16,2032.95,2451.42,2674.12,2861.79,349.40,350.76,18.29,0000 0000 0000 0000 000000
2015-04-07 12:22:19,0.03,2.56,0.00,23.70,27.00,29.77,4.83,27.65,1029.17,2032.94,2450.93,2673.99,2861.05,349.94,350.99,18.31,0000 0000 0000 0000 000000
2015-04-07 12:27:20,0.10,2.56,0.00,23.83,27.00,29.82,4.83,27.66,1029.24,2032.92,2450.09,2673.28,2860.65,349.76,350.63,18.34,0000 0000 0000 0000 000000
2015-04-07 12:32:21,0.03,2.56,0.00,24.38,27.02,29.80,4.76,27.38,1029.31,2032.77,2449.38,2672.92,2860.00,349.65,350.10,18.37,0000 0000 0000 0000 000000
2015-04-07 12:37:22,0.02,2.56,0.00,24.23,27.02,29.87,4.87,27.63,1029.31,2032.51,2448.76,2672.15,2859.29,350.60,351.28,18.40,0000 0000 0000 0000 000000
2015-04-07 12:42:23,0.03,2.56,0.00,23.60,27.05,30.04,4.86,27.57,1029.31,2032.31,2447.99,2671.97,2858.97,350.26,351.62,18.43,0000 0000 0000 0000 000000
2015-04-07 12:47:25,0.11,2.56,0.00,23.37,27.05,29.95,4.79,27.59,1029.31,2032.18,2447.12,2671.25,2858.22,349.45,351.04,18.46,0000 0000 0000 0000 000000
2015-04-07 12:52:26,0.05,2.57,0.00,23.65,27.03,29.77,4.79,27.54,1029.31,2032.38,2446.93,2671.02,2858.00,349.70,351.13,18.49,0000 0000 0000 0000 000000
2015-04-07 12:57:27,0.11,2.57,0.00,23.58,27.02,29.69,4.78,27.68,1029.30,2032.79,2446.30,2670.97,2857.90,350.33,351.43,18.52,0000 0000 0000 0000 000000
2015-04-07 13:02:29,0.08,2.57,0.00,23.47,27.01,29.66,4.81,27.57,1029.30,2032.84,2445.97,2670.48,2857.16,349.98,351.48,18.55,0000 0000 0000 0000 000000